Volver al catálogo

STARLINK-37006

ActivoComunicacionesVLEO
NORAD 68187·PAYLOAD·🇺🇸 United States

Lanzado Mar 14, 2026 desde Vandenberg Space Force Base

Loading…

Próximos Pases (próximas 24 horas)

TLE

ActualizadoSource: CelesTrak SupGP

Época: Sep 15, 2026, 03:31 UTC

1 68187C 26050W   26258.14701389 -.00010477  00000+0 -30947-3 0  2583
2 68187  53.1578 103.0211 0001263  81.1891 231.2856 15.34402230    11

Sigue STARLINK-37006 en tiempo real con AllMySat

Download on the App Store